This demonstration page uses our WeatherBlox Daily Observations layout. Learn more.

Left ArrowRight Arrow

39.92423, -83.80882

Hourly Observations for November 24, 2015

Temp ( °F °C ) Dew Point ( °F °C ) Humidity (%) Winds ( mph kmh ) Pressure ( in mb ) Visibility ( mi km ) Precip ( " mm )
12:56 am 00:56 Mostly Clear 33 0.5 27 -2.7 79 79 SSW 8 13 30.24 1024 10 16.0934 0 0
1:56 am 01:56 Clear 31 -0.5 26 -3.3 82 82 SSW 6 9 30.24 1024 10 16.0934 0 0
2:56 am 02:56 Clear 30 -1.1 26 -3.3 85 85 SSW 5 7 30.26 1025 10 16.0934 0 0
3:56 am 03:56 Clear 30 -1.1 25 -3.8 82 82 SSW 6 9 30.27 1025 10 16.0934 0 0
4:56 am 04:56 Clear 28 -2.2 25 -3.8 89 89 WSW 6 9 30.29 1026 10 16.0934 0 0
5:56 am 05:56 Clear 31 -0.5 27 -2.7 85 85 W 3 6 30.32 1027 10 16.0934 0 0
6:56 am 06:56 Clear 26 -3.3 23 -5 88 88 Calm 30.35 1028 10 16.0934 0 0
7:56 am 07:56 Sunny 26 -3.3 25 -3.8 96 96 Calm 30.36 1028 10 16.0934 0 0
8:56 am 08:56 Sunny 33 0.5 30 -1.1 89 89 Calm 30.38 1029 10 16.0934 0 0
9:56 am 09:56 Sunny 38 3.3 32 0 79 79 VRB 3 6 30.39 1029 10 16.0934 0 0
10:56 am 10:56 Sunny 42 5.5 32 0 68 68 VRB 3 6 30.4 1030 10 16.0934 0 0
11:56 am 11:56 Sunny 45 7.2 32 0 61 61 Calm 30.4 1029 10 16.0934 0 0
12:56 pm 12:56 Sunny 48 8.8 32 0 54 54 Calm 30.38 1029 10 16.0934 0 0
1:56 pm 13:56 Sunny 47 8.3 32 0 56 56 VRB 5 7 30.37 1029 10 16.0934 0 0
2:56 pm 14:56 Sunny 50 10 31 -0.5 48 48 SW 6 9 30.36 1028 10 16.0934 0 0
3:56 pm 15:56 Sunny 50 10 29 -1.6 45 45 Calm 30.36 1028 10 16.0934 0 0
4:56 pm 16:56 Sunny 46 7.7 29 -1.6 52 52 Calm 30.38 1029 10 16.0934 0 0
5:56 pm 17:56 Clear 42 5.5 30 -1.1 63 63 ESE 3 6 30.39 1029 10 16.0934 0 0
6:56 pm 18:56 Clear 35 1.6 29 -1.6 80 80 ESE 5 7 30.4 1030 10 16.0934 0 0
7:56 pm 19:56 Clear 32 0 28 -2.2 85 85 E 5 7 30.42 1030 10 16.0934 0 0
8:56 pm 20:56 Clear 32 0 28 -2.2 85 85 ESE 7 11 30.41 1030 10 16.0934 0 0
9:56 pm 21:56 Clear 34 1.1 30 -1.1 85 85 SE 6 9 30.41 1030 10 16.0934 0 0
10:56 pm 22:56 Clear 34 1.1 29 -1.6 82 82 ESE 7 11 30.41 1030 10 16.0934 0 0
11:56 pm 23:56 Clear 35 1.6 30 -1.1 82 82 ESE 7 11 30.41 1030 10 16.0934 0 0

Powered by AerisWeather